Location: Winthrop
(48.4780°N, 120.1850°W)
Time: 03:08:45
(UTC-07:00)

Transit 2A - Pass Details

Date: 17 June 2024
Orbit: 591 x 960 km, 66.7° (Epoch: 23 July)

Event Time Altitude Azimuth Distance (km) Brightness Sun altitude
Rises 23:08:39 0° 323° (NW) 3,400 11.1 -13.8°
Reaches altitude 10° 23:11:50 10° 341° (NNW) 2,529 10.1 -14.0°
Maximum altitude 23:15:58 19° 26° (NNE) 2,022 8.7 -14.3°
Drops below altitude 10° 23:20:17 10° 70° (ENE) 2,654 8.7 -14.6°
Sets 23:23:42 0° 87° (E) 3,626 9.3 -14.8°
